GFSNW_prec_prec_204.txt.gz
QPF
0.01 0.01 0.01 0.01 0.02 0.06 0.13 0.05 0.05 0.00 0.00 0.03 0.03 0.01 0.00 0.00 0.00 0.09 0.26 0.17 0.09 0.03 0.01 0.00 0.00 0.00 0.00 0.00 0.00 0.00 0.00 0.00 0.00 0.00 0.00 0.00 0.00 0.00 0.00 0.00 0.00 0.00 0.00 0.00
0.01 0.01 0.01 0.02 0.03 0.11 0.08 0.07 0.04 0.01 0.07 0.06 0.01 0.00 0.00 0.00 0.00 0.01 0.22 0.23 0.12 0.06 0.01 0.00 0.00 0.00 0.00 0.00 0.00 0.00 0.00 0.00 0.00 0.01 0.00 0.00 0.00 0.00 0.00 0.00 0.00 0.00 0.00 0.00
0.02 0.03 0.03 0.01 0.03 0.13 0.09 0.10 0.09 0.05 0.02 0.01 0.02 0.02 0.01 0.00 0.00 0.00 0.03 0.14 0.12 0.16 0.13 0.01 0.00 0.00 0.00 0.00 0.00 0.00 0.00 0.01 0.02 0.01 0.00 0.00 0.00 0.00 0.00 0.00 0.00 0.00 0.00 0.00
0.03 0.03 0.04 0.01 0.05 0.11 0.12 0.21 0.11 0.02 0.02 0.01 0.01 0.04 0.05 0.01 0.00 0.00 0.00 0.02 0.11 0.11 0.20 0.15 0.01 0.00 0.00 0.00 0.00 0.00 0.01 0.09 0.04 0.00 0.00 0.00 0.00 0.00 0.00 0.00 0.00 0.00 0.00 0.00
0.01 0.00 0.01 0.01 0.03 0.10 0.13 0.16 0.07 0.04 0.01 0.00 0.00 0.00 0.01 0.01 0.00 0.00 0.00 0.01 0.02 0.08 0.16 0.12 0.08 0.01 0.00 0.00 0.00 0.01 0.06 0.15 0.02 0.00 0.00 0.00 0.00 0.00 0.00 0.00 0.00 0.00 0.00 0.00
0.01 0.01 0.02 0.01 0.04 0.11 0.16 0.09 0.03 0.08 0.09 0.02 0.01 0.00 0.00 0.00 0.00 0.00 0.00 0.00 0.00 0.04 0.09 0.05 0.07 0.04 0.01 0.00 0.00 0.02 0.10 0.26 0.15 0.07 0.00 0.00 0.04 0.01 0.00 0.00 0.00 0.00 0.01 0.01
0.01 0.02 0.04 0.03 0.05 0.09 0.08 0.08 0.04 0.11 0.11 0.05 0.01 0.00 0.00 0.00 0.00 0.00 0.00 0.00 0.00 0.00 0.01 0.04 0.10 0.14 0.08 0.04 0.06 0.04 0.08 0.17 0.32 0.32 0.13 0.19 0.16 0.01 0.00 0.00 0.00 0.00 0.01 0.00
0.04 0.02 0.02 0.03 0.03 0.07 0.11 0.13 0.09 0.12 0.08 0.01 0.00 0.00 0.00 0.00 0.00 0.00 0.00 0.00 0.01 0.01 0.01 0.05 0.21 0.27 0.14 0.04 0.05 0.13 0.12 0.12 0.28 0.25 0.26 0.21 0.04 0.00 0.00 0.00 0.00 0.00 0.00 0.00
0.00 0.00 0.00 0.01 0.03 0.07 0.15 0.22 0.16 0.13 0.17 0.04 0.00 0.00 0.00 0.00 0.00 0.00 0.00 0.00 0.01 0.06 0.11 0.13 0.17 0.19 0.14 0.08 0.02 0.03 0.08 0.20 0.39 0.38 0.24 0.11 0.01 0.00 0.00 0.00 0.03 0.00 0.00 0.00
0.01 0.01 0.02 0.04 0.07 0.13 0.22 0.31 0.17 0.25 0.24 0.05 0.00 0.00 0.00 0.00 0.00 0.00 0.00 0.01 0.03 0.05 0.13 0.21 0.17 0.12 0.02 0.02 0.02 0.02 0.06 0.11 0.22 0.30 0.21 0.07 0.00 0.00 0.00 0.00 0.01 0.00 0.00 0.00
0.01 0.01 0.02 0.05 0.07 0.07 0.16 0.24 0.10 0.35 0.29 0.05 0.00 0.00 0.00 0.00 0.01 0.01 0.00 0.02 0.07 0.11 0.15 0.25 0.17 0.16 0.08 0.03 0.01 0.00 0.00 0.01 0.05 0.10 0.08 0.02 0.00 0.00 0.00 0.00 0.00 0.00 0.00 0.00
0.01 0.01 0.01 0.02 0.04 0.06 0.09 0.14 0.06 0.21 0.33 0.17 0.00 0.00 0.00 0.00 0.00 0.00 0.01 0.01 0.06 0.09 0.14 0.12 0.15 0.12 0.09 0.08 0.04 0.00 0.00 0.00 0.00 0.01 0.01 0.00 0.00 0.00 0.00 0.00 0.00 0.00 0.00 0.00
0.00 0.00 0.00 0.01 0.03 0.05 0.08 0.09 0.18 0.51 0.62 0.22 0.04 0.00 0.00 0.01 0.01 0.01 0.02 0.01 0.02 0.12 0.08 0.07 0.03 0.07 0.06 0.03 0.02 0.02 0.02 0.00 0.00 0.00 0.00 0.00 0.00 0.00 0.00 0.00 0.00 0.00 0.00 0.00
0.00 0.00 0.00 0.01 0.03 0.07 0.12 0.07 0.17 0.39 0.23 0.14 0.14 0.04 0.00 0.00 0.01 0.03 0.01 0.00 0.00 0.02 0.12 0.18 0.19 0.08 0.01 0.01 0.00 0.00 0.00 0.00 0.01 0.00 0.00 0.00 0.00 0.00 0.00 0.00 0.00 0.00 0.00 0.00
0.00 0.00 0.00 0.00 0.00 0.03 0.08 0.04 0.06 0.13 0.07 0.05 0.08 0.07 0.02 0.02 0.03 0.04 0.07 0.02 0.01 0.00 0.02 0.11 0.13 0.11 0.09 0.04 0.01 0.00 0.00 0.00 0.00 0.00 0.00 0.00 0.00 0.00 0.00 0.00 0.00 0.00 0.00 0.00
0.00 0.00 0.00 0.00 0.00 0.01 0.07 0.06 0.08 0.10 0.01 0.02 0.10 0.10 0.08 0.02 0.04 0.10 0.16 0.24 0.15 0.03 0.02 0.03 0.02 0.01 0.00 0.02 0.01 0.00 0.00 0.00 0.00 0.00 0.00 0.00 0.00 0.00 0.00 0.00 0.00 0.00 0.00 0.00
0.00 0.00 0.00 0.00 0.00 0.00 0.03 0.08 0.09 0.11 0.03 0.02 0.03 0.07 0.12 0.13 0.10 0.24 0.32 0.24 0.31 0.26 0.16 0.07 0.05 0.01 0.01 0.02 0.00 0.00 0.00 0.00 0.01 0.00 0.00 0.00 0.00 0.00 0.00 0.00 0.00 0.00 0.00 0.00
0.00 0.00 0.00 0.00 0.00 0.00 0.01 0.01 0.03 0.07 0.04 0.02 0.02 0.04 0.07 0.12 0.16 0.16 0.19 0.16 0.09 0.11 0.15 0.13 0.10 0.10 0.05 0.02 0.00 0.00 0.00 0.00 0.00 0.00 0.00 0.00 0.00 0.00 0.00 0.00 0.00 0.00 0.00 0.00
0.00 0.00 0.00 0.00 0.00 0.00 0.00 0.00 0.01 0.01 0.02 0.06 0.06 0.04 0.06 0.08 0.05 0.05 0.03 0.01 0.03 0.03 0.04 0.06 0.06 0.05 0.01 0.00 0.00 0.00 0.00 0.00 0.00 0.00 0.00 0.00 0.00 0.00 0.00 0.00 0.00 0.00 0.00 0.00
0.00 0.00 0.00 0.00 0.00 0.00 0.00 0.00 0.00 0.00 0.01 0.05 0.10 0.04 0.06 0.09 0.04 0.03 0.04 0.02 0.03 0.05 0.08 0.04 0.02 0.00 0.00 0.00 0.00 0.00 0.00 0.00 0.00 0.00 0.00 0.00 0.00 0.00 0.00 0.00 0.00 0.00 0.00 0.00
0.00 0.00 0.00 0.00 0.00 0.00 0.00 0.00 0.00 0.00 0.02 0.06 0.11 0.09 0.05 0.05 0.03 0.03 0.01 0.02 0.01 0.02 0.05 0.02 0.03 0.01 0.00 0.00 0.00 0.00 0.00 0.00 0.00 0.00 0.00 0.00 0.00 0.00 0.00 0.00 0.00 0.00 0.00 0.00
0.00 0.00 0.00 0.00 0.00 0.00 0.00 0.00 0.00 0.00 0.02 0.01 0.03 0.03 0.02 0.01 0.00 0.00 0.00 0.00 0.00 0.01 0.00 0.00 0.00 0.00 0.00 0.00 0.00 0.00 0.00 0.00 0.00 0.00 0.00 0.00 0.00 0.00 0.00 0.00 0.00 0.00 0.00 0.00
0.00 0.00 0.00 0.00 0.00 0.00 0.00 0.00 0.00 0.00 0.00 0.00 0.00 0.00 0.00 0.00 0.00 0.00 0.00 0.00 0.00 0.00 0.00 0.00 0.00 0.00 0.00 0.00 0.00 0.00 0.00 0.00 0.00 0.00 0.00 0.00 0.00 0.00 0.00 0.00 0.00 0.00 0.00 0.00
0.00 0.00 0.00 0.00 0.00 0.00 0.00 0.00 0.00 0.00 0.00 0.00 0.00 0.00 0.00 0.00 0.00 0.00 0.00 0.00 0.00 0.00 0.00 0.00 0.00 0.00 0.00 0.00 0.00 0.00 0.00 0.00 0.00 0.00 0.00 0.00 0.00 0.00 0.00 0.00 0.00 0.00 0.00 0.00
0.00 0.00 0.00 0.00 0.00 0.00 0.00 0.00 0.00 0.00 0.00 0.00 0.00 0.00 0.00 0.00 0.00 0.00 0.00 0.00 0.00 0.00 0.00 0.00 0.00 0.00 0.00 0.00 0.00 0.00 0.00 0.00 0.00 0.00 0.00 0.00 0.00 0.00 0.00 0.00 0.00 0.00 0.00 0.00
0.00 0.00 0.00 0.00 0.00 0.00 0.00 0.00 0.00 0.00 0.00 0.00 0.00 0.00 0.00 0.00 0.00 0.00 0.00 0.00 0.00 0.00 0.00 0.00 0.00 0.00 0.00 0.00 0.00 0.00 0.00 0.00 0.00 0.00 0.00 0.00 0.00 0.00 0.00 0.00 0.00 0.00 0.00 0.00
0.00 0.00 0.00 0.00 0.00 0.00 0.00 0.00 0.00 0.00 0.00 0.00 0.00 0.00 0.00 0.00 0.00 0.00 0.00 0.00 0.00 0.00 0.00 0.00 0.00 0.00 0.00 0.00 0.00 0.00 0.00 0.00 0.00 0.00 0.00 0.00 0.00 0.00 0.00 0.00 0.00 0.00 0.00 0.00

GFSNW_prec_prec_210.txt.gz
QPF
0.00 0.00 0.00 0.00 0.01 0.12 0.09 0.06 0.04 0.01 0.01 0.03 0.02 0.00 0.00 0.00 0.00 0.00 0.00 0.00 0.01 0.03 0.02 0.09 0.25 0.20 0.03 0.00 0.00 0.00 0.00 0.02 0.01 0.00 0.00 0.00 0.00 0.00 0.00 0.01 0.00 0.00 0.00 0.00
0.01 0.01 0.01 0.02 0.03 0.08 0.07 0.07 0.03 0.01 0.04 0.02 0.02 0.01 0.00 0.00 0.00 0.00 0.00 0.00 0.00 0.02 0.06 0.13 0.06 0.10 0.09 0.02 0.03 0.02 0.02 0.07 0.04 0.03 0.03 0.02 0.01 0.00 0.00 0.01 0.00 0.00 0.00 0.00
0.01 0.02 0.03 0.03 0.04 0.07 0.09 0.05 0.03 0.05 0.10 0.03 0.01 0.01 0.01 0.00 0.00 0.00 0.00 0.00 0.00 0.00 0.01 0.07 0.06 0.05 0.09 0.02 0.03 0.02 0.05 0.04 0.04 0.02 0.02 0.01 0.01 0.00 0.00 0.02 0.02 0.00 0.00 0.00
0.01 0.01 0.02 0.02 0.04 0.09 0.12 0.06 0.03 0.03 0.05 0.04 0.01 0.01 0.01 0.01 0.01 0.00 0.00 0.01 0.00 0.00 0.00 0.00 0.01 0.00 0.01 0.02 0.02 0.05 0.07 0.11 0.04 0.00 0.00 0.00 0.00 0.00 0.00 0.03 0.01 0.01 0.00 0.00
0.01 0.00 0.02 0.05 0.04 0.12 0.10 0.05 0.03 0.02 0.01 0.01 0.02 0.02 0.02 0.01 0.00 0.00 0.00 0.01 0.01 0.01 0.01 0.00 0.00 0.00 0.00 0.02 0.02 0.08 0.16 0.23 0.04 0.01 0.00 0.00 0.00 0.00 0.01 0.02 0.01 0.02 0.00 0.00
0.00 0.00 0.01 0.02 0.04 0.14 0.07 0.03 0.01 0.04 0.04 0.03 0.04 0.01 0.00 0.00 0.00 0.00 0.00 0.00 0.01 0.02 0.00 0.01 0.01 0.01 0.01 0.00 0.01 0.04 0.12 0.26 0.21 0.13 0.01 0.01 0.02 0.01 0.00 0.00 0.00 0.01 0.01 0.00
0.03 0.03 0.02 0.01 0.03 0.10 0.04 0.01 0.01 0.05 0.06 0.02 0.02 0.01 0.01 0.00 0.00 0.00 0.00 0.00 0.00 0.00 0.00 0.01 0.01 0.01 0.02 0.05 0.02 0.03 0.11 0.13 0.19 0.14 0.03 0.12 0.13 0.01 0.00 0.00 0.00 0.00 0.00 0.00
0.02 0.03 0.03 0.03 0.04 0.10 0.07 0.01 0.01 0.02 0.02 0.01 0.00 0.00 0.00 0.00 0.00 0.00 0.00 0.00 0.00 0.00 0.04 0.07 0.06 0.01 0.01 0.03 0.04 0.02 0.08 0.14 0.23 0.14 0.10 0.11 0.02 0.00 0.00 0.00 0.00 0.00 0.00 0.00
0.00 0.01 0.01 0.02 0.03 0.06 0.09 0.04 0.01 0.03 0.10 0.03 0.00 0.00 0.00 0.01 0.01 0.01 0.00 0.00 0.00 0.02 0.13 0.09 0.06 0.03 0.01 0.01 0.01 0.00 0.03 0.12 0.14 0.16 0.15 0.12 0.01 0.00 0.00 0.01 0.07 0.00 0.00 0.00
0.00 0.00 0.00 0.01 0.01 0.03 0.07 0.03 0.02 0.05 0.14 0.03 0.00 0.00 0.00 0.00 0.01 0.04 0.00 0.00 0.00 0.03 0.13 0.07 0.02 0.02 0.02 0.02 0.03 0.06 0.11 0.19 0.26 0.12 0.15 0.05 0.00 0.00 0.00 0.07 0.08 0.00 0.00 0.00
0.00 0.00 0.00 0.00 0.00 0.01 0.06 0.07 0.03 0.22 0.31 0.11 0.00 0.00 0.00 0.00 0.06 0.09 0.01 0.07 0.06 0.07 0.07 0.03 0.01 0.01 0.02 0.02 0.01 0.06 0.11 0.29 0.32 0.28 0.14 0.06 0.01 0.00 0.00 0.00 0.00 0.00 0.00 0.00
0.00 0.00 0.00 0.00 0.00 0.01 0.07 0.15 0.03 0.24 0.49 0.29 0.02 0.00 0.00 0.00 0.03 0.04 0.06 0.08 0.02 0.01 0.01 0.01 0.01 0.01 0.02 0.02 0.02 0.01 0.07 0.20 0.36 0.42 0.25 0.03 0.00 0.00 0.01 0.01 0.00 0.00 0.00 0.00
0.00 0.00 0.00 0.00 0.00 0.01 0.06 0.10 0.09 0.31 0.35 0.19 0.05 0.01 0.00 0.01 0.05 0.06 0.20 0.09 0.02 0.04 0.04 0.05 0.04 0.04 0.01 0.00 0.00 0.01 0.01 0.03 0.06 0.11 0.11 0.10 0.05 0.01 0.00 0.00 0.01 0.00 0.00 0.00
0.00 0.00 0.00 0.00 0.00 0.00 0.02 0.04 0.07 0.20 0.18 0.10 0.01 0.00 0.01 0.02 0.02 0.03 0.07 0.04 0.02 0.02 0.06 0.07 0.05 0.07 0.08 0.04 0.01 0.00 0.00 0.00 0.00 0.00 0.00 0.00 0.01 0.01 0.00 0.00 0.00 0.00 0.00 0.00
0.00 0.00 0.00 0.00 0.00 0.00 0.01 0.02 0.08 0.13 0.14 0.06 0.01 0.01 0.01 0.00 0.00 0.00 0.01 0.04 0.06 0.06 0.06 0.06 0.03 0.02 0.08 0.10 0.08 0.03 0.00 0.00 0.01 0.02 0.00 0.02 0.01 0.01 0.01 0.00 0.00 0.00 0.00 0.00
0.00 0.00 0.00 0.00 0.00 0.00 0.00 0.03 0.08 0.13 0.15 0.15 0.05 0.03 0.01 0.01 0.01 0.01 0.01 0.03 0.04 0.06 0.06 0.07 0.04 0.02 0.03 0.06 0.06 0.01 0.00 0.00 0.01 0.01 0.00 0.00 0.00 0.00 0.00 0.00 0.00 0.00 0.00 0.00
0.00 0.00 0.00 0.00 0.00 0.00 0.00 0.01 0.01 0.03 0.10 0.14 0.03 0.01 0.03 0.05 0.04 0.03 0.04 0.04 0.06 0.09 0.14 0.09 0.04 0.02 0.03 0.04 0.01 0.00 0.00 0.00 0.00 0.00 0.00 0.00 0.00 0.00 0.00 0.00 0.00 0.00 0.00 0.00
0.00 0.00 0.00 0.00 0.00 0.00 0.00 0.00 0.00 0.02 0.10 0.10 0.05 0.01 0.04 0.16 0.19 0.10 0.05 0.06 0.10 0.12 0.15 0.12 0.06 0.03 0.03 0.03 0.00 0.00 0.00 0.00 0.00 0.00 0.00 0.00 0.00 0.00 0.00 0.00 0.00 0.00 0.00 0.00
0.00 0.00 0.00 0.00 0.00 0.00 0.00 0.00 0.00 0.01 0.08 0.08 0.02 0.01 0.01 0.05 0.13 0.19 0.17 0.13 0.15 0.14 0.11 0.09 0.09 0.09 0.03 0.00 0.00 0.00 0.00 0.00 0.00 0.00 0.00 0.00 0.00 0.00 0.00 0.00 0.00 0.00 0.00 0.00
0.00 0.00 0.00 0.00 0.00 0.00 0.00 0.00 0.00 0.01 0.02 0.02 0.02 0.01 0.01 0.01 0.03 0.07 0.09 0.09 0.10 0.09 0.05 0.03 0.05 0.02 0.00 0.00 0.00 0.00 0.00 0.00 0.00 0.00 0.00 0.00 0.00 0.00 0.00 0.00 0.00 0.00 0.00 0.00
0.00 0.00 0.00 0.00 0.00 0.00 0.00 0.00 0.00 0.01 0.02 0.01 0.02 0.02 0.02 0.01 0.02 0.03 0.02 0.02 0.02 0.03 0.02 0.02 0.01 0.00 0.00 0.00 0.00 0.00 0.00 0.00 0.00 0.00 0.00 0.00 0.00 0.00 0.00 0.00 0.00 0.00 0.00 0.00
0.00 0.00 0.00 0.00 0.00 0.00 0.00 0.00 0.00 0.01 0.03 0.02 0.02 0.02 0.02 0.01 0.00 0.01 0.01 0.01 0.00 0.00 0.00 0.00 0.00 0.00 0.00 0.01 0.02 0.01 0.01 0.01 0.00 0.00 0.00 0.00 0.00 0.00 0.00 0.00 0.00 0.00 0.00 0.00
0.00 0.00 0.00 0.00 0.00 0.00 0.00 0.00 0.00 0.01 0.01 0.01 0.00 0.00 0.00 0.00 0.00 0.00 0.00 0.00 0.00 0.00 0.00 0.00 0.00 0.00 0.00 0.01 0.03 0.00 0.00 0.01 0.00 0.00 0.00 0.00 0.00 0.00 0.00 0.00 0.00 0.00 0.00 0.00
0.00 0.00 0.00 0.00 0.00 0.00 0.00 0.00 0.00 0.00 0.00 0.00 0.00 0.00 0.00 0.00 0.00 0.00 0.00 0.00 0.00 0.00 0.00 0.00 0.00 0.00 0.00 0.00 0.01 0.00 0.00 0.00 0.00 0.00 0.00 0.00 0.00 0.00 0.00 0.00 0.00 0.00 0.00 0.00
0.00 0.00 0.00 0.00 0.00 0.00 0.00 0.00 0.00 0.00 0.00 0.00 0.00 0.00 0.00 0.00 0.00 0.00 0.00 0.00 0.00 0.00 0.00 0.00 0.00 0.00 0.00 0.00 0.00 0.00 0.00 0.00 0.00 0.00 0.00 0.00 0.00 0.00 0.00 0.00 0.00 0.00 0.00 0.00
0.00 0.00 0.00 0.00 0.00 0.00 0.00 0.00 0.00 0.00 0.00 0.00 0.00 0.00 0.00 0.00 0.00 0.00 0.00 0.00 0.00 0.00 0.00 0.00 0.00 0.00 0.00 0.00 0.00 0.00 0.00 0.00 0.00 0.00 0.00 0.00 0.00 0.00 0.00 0.00 0.00 0.00 0.00 0.00
0.00 0.00 0.00 0.00 0.00 0.00 0.00 0.00 0.00 0.00 0.00 0.00 0.00 0.00 0.00 0.00 0.00 0.00 0.00 0.00 0.00 0.00 0.00 0.00 0.00 0.00 0.00 0.00 0.00 0.00 0.00 0.00 0.00 0.00 0.00 0.00 0.00 0.00 0.00 0.00 0.01 0.00 0.00 0.00

GFSNW_prec_prec_216.txt.gz
QPF
0.00 0.00 0.00 0.00 0.05 0.01 0.01 0.07 0.04 0.12 0.11 0.05 0.03 0.01 0.00 0.00 0.00 0.00 0.00 0.00 0.00 0.00 0.00 0.00 0.02 0.06 0.15 0.15 0.10 0.04 0.04 0.12 0.10 0.01 0.00 0.00 0.00 0.00 0.00 0.03 0.02 0.03 0.01 0.01
0.00 0.00 0.00 0.01 0.02 0.01 0.06 0.06 0.03 0.11 0.16 0.06 0.02 0.01 0.01 0.01 0.00 0.00 0.00 0.00 0.00 0.00 0.00 0.01 0.01 0.01 0.03 0.10 0.13 0.18 0.10 0.16 0.18 0.05 0.02 0.00 0.00 0.01 0.01 0.01 0.02 0.01 0.01 0.01
0.00 0.00 0.01 0.03 0.03 0.03 0.05 0.05 0.02 0.02 0.03 0.03 0.03 0.05 0.04 0.01 0.00 0.00 0.00 0.00 0.00 0.00 0.00 0.00 0.02 0.00 0.00 0.01 0.02 0.06 0.15 0.07 0.09 0.06 0.02 0.00 0.00 0.00 0.01 0.02 0.07 0.06 0.01 0.00
0.01 0.00 0.00 0.02 0.04 0.04 0.06 0.05 0.01 0.02 0.02 0.01 0.01 0.02 0.03 0.02 0.02 0.03 0.01 0.03 0.03 0.01 0.01 0.00 0.00 0.00 0.00 0.00 0.00 0.03 0.12 0.07 0.01 0.02 0.00 0.00 0.00 0.00 0.00 0.00 0.03 0.14 0.11 0.01
0.00 0.00 0.00 0.01 0.05 0.05 0.06 0.03 0.01 0.03 0.04 0.04 0.04 0.03 0.01 0.01 0.01 0.03 0.01 0.04 0.01 0.01 0.02 0.02 0.01 0.01 0.01 0.01 0.02 0.10 0.14 0.06 0.02 0.03 0.00 0.00 0.04 0.00 0.00 0.00 0.00 0.00 0.01 0.01
0.00 0.00 0.00 0.00 0.03 0.05 0.05 0.02 0.03 0.07 0.05 0.03 0.05 0.06 0.07 0.05 0.03 0.01 0.01 0.02 0.03 0.03 0.01 0.00 0.01 0.02 0.01 0.02 0.03 0.06 0.10 0.06 0.04 0.04 0.00 0.04 0.08 0.01 0.00 0.00 0.00 0.00 0.00 0.00
0.00 0.00 0.01 0.00 0.02 0.04 0.07 0.04 0.05 0.08 0.04 0.02 0.01 0.02 0.03 0.03 0.03 0.03 0.03 0.02 0.04 0.00 0.00 0.01 0.01 0.00 0.00 0.00 0.01 0.01 0.02 0.03 0.07 0.06 0.03 0.09 0.01 0.00 0.00 0.00 0.00 0.00 0.00 0.00
0.00 0.00 0.00 0.01 0.03 0.05 0.07 0.10 0.09 0.08 0.06 0.01 0.00 0.01 0.02 0.01 0.00 0.01 0.01 0.00 0.00 0.00 0.05 0.15 0.04 0.00 0.00 0.00 0.00 0.00 0.00 0.01 0.02 0.02 0.02 0.02 0.00 0.00 0.00 0.00 0.00 0.00 0.00 0.00
0.00 0.00 0.00 0.00 0.01 0.03 0.03 0.07 0.10 0.17 0.20 0.04 0.01 0.02 0.01 0.02 0.02 0.01 0.00 0.00 0.00 0.01 0.05 0.07 0.04 0.01 0.01 0.00 0.00 0.01 0.02 0.01 0.03 0.02 0.01 0.01 0.00 0.00 0.00 0.00 0.01 0.00 0.00 0.00
0.00 0.00 0.00 0.00 0.00 0.02 0.02 0.02 0.06 0.12 0.17 0.03 0.01 0.02 0.02 0.01 0.03 0.05 0.01 0.01 0.03 0.04 0.15 0.10 0.03 0.02 0.01 0.01 0.01 0.00 0.03 0.04 0.06 0.04 0.02 0.00 0.00 0.00 0.00 0.02 0.04 0.00 0.00 0.00
0.00 0.00 0.00 0.00 0.00 0.00 0.02 0.01 0.03 0.08 0.06 0.03 0.00 0.00 0.01 0.01 0.03 0.06 0.02 0.09 0.10 0.11 0.12 0.07 0.03 0.04 0.01 0.01 0.00 0.00 0.02 0.06 0.07 0.05 0.08 0.04 0.00 0.00 0.02 0.03 0.01 0.01 0.02 0.07
0.00 0.00 0.00 0.00 0.00 0.00 0.02 0.01 0.01 0.07 0.10 0.13 0.01 0.00 0.00 0.01 0.03 0.06 0.13 0.11 0.06 0.10 0.11 0.05 0.02 0.03 0.02 0.01 0.01 0.00 0.01 0.02 0.07 0.07 0.04 0.01 0.00 0.00 0.01 0.05 0.09 0.08 0.10 0.05
0.00 0.00 0.00 0.00 0.00 0.00 0.01 0.01 0.02 0.06 0.04 0.02 0.01 0.00 0.00 0.00 0.00 0.02 0.19 0.16 0.04 0.03 0.06 0.08 0.10 0.08 0.04 0.02 0.01 0.02 0.01 0.00 0.05 0.10 0.07 0.02 0.00 0.00 0.00 0.00 0.01 0.04 0.06 0.05
0.00 0.00 0.00 0.00 0.00 0.00 0.00 0.01 0.01 0.05 0.04 0.05 0.01 0.00 0.00 0.00 0.00 0.01 0.05 0.06 0.04 0.09 0.09 0.15 0.11 0.06 0.04 0.06 0.07 0.09 0.05 0.10 0.12 0.10 0.04 0.02 0.01 0.00 0.00 0.01 0.01 0.01 0.01 0.02
0.00 0.00 0.00 0.00 0.00 0.00 0.00 0.00 0.01 0.04 0.06 0.07 0.02 0.00 0.00 0.00 0.00 0.01 0.03 0.07 0.14 0.26 0.24 0.18 0.11 0.02 0.04 0.03 0.04 0.03 0.01 0.01 0.05 0.09 0.05 0.04 0.03 0.01 0.00 0.05 0.11 0.06 0.03 0.01
0.00 0.00 0.00 0.00 0.00 0.00 0.01 0.01 0.00 0.01 0.03 0.07 0.02 0.00 0.00 0.00 0.00 0.00 0.02 0.05 0.14 0.18 0.14 0.09 0.03 0.01 0.08 0.12 0.02 0.00 0.00 0.01 0.04 0.03 0.02 0.02 0.04 0.03 0.01 0.01 0.04 0.14 0.15 0.06
0.00 0.00 0.00 0.00 0.00 0.00 0.01 0.00 0.01 0.00 0.01 0.02 0.02 0.01 0.00 0.00 0.00 0.01 0.01 0.04 0.13 0.07 0.07 0.04 0.01 0.02 0.05 0.04 0.01 0.00 0.00 0.03 0.06 0.06 0.05 0.06 0.02 0.00 0.00 0.00 0.00 0.04 0.09 0.11
0.00 0.00 0.00 0.00 0.00 0.00 0.00 0.00 0.00 0.01 0.06 0.03 0.04 0.02 0.03 0.01 0.01 0.02 0.07 0.10 0.06 0.04 0.05 0.02 0.01 0.01 0.07 0.05 0.00 0.00 0.00 0.00 0.01 0.03 0.06 0.08 0.06 0.03 0.00 0.00 0.00 0.00 0.05 0.11
0.00 0.00 0.00 0.00 0.00 0.00 0.01 0.00 0.00 0.03 0.08 0.04 0.02 0.02 0.05 0.01 0.01 0.00 0.03 0.07 0.09 0.04 0.03 0.01 0.02 0.01 0.01 0.00 0.00 0.00 0.01 0.01 0.01 0.01 0.02 0.01 0.01 0.00 0.00 0.00 0.00 0.00 0.00 0.01
0.00 0.00 0.00 0.00 0.00 0.00 0.00 0.01 0.02 0.04 0.04 0.05 0.02 0.02 0.04 0.03 0.04 0.05 0.03 0.03 0.05 0.07 0.02 0.01 0.03 0.01 0.00 0.00 0.00 0.00 0.00 0.00 0.00 0.00 0.00 0.00 0.00 0.00 0.00 0.00 0.00 0.00 0.00 0.00
0.00 0.01 0.01 0.01 0.00 0.00 0.00 0.02 0.03 0.03 0.04 0.04 0.03 0.03 0.03 0.03 0.03 0.07 0.10 0.08 0.06 0.06 0.05 0.02 0.03 0.02 0.01 0.00 0.00 0.00 0.00 0.00 0.00 0.00 0.00 0.00 0.00 0.00 0.00 0.00 0.00 0.00 0.00 0.00
0.00 0.00 0.00 0.00 0.00 0.01 0.01 0.01 0.00 0.01 0.01 0.03 0.02 0.03 0.01 0.02 0.00 0.03 0.05 0.05 0.05 0.06 0.04 0.02 0.01 0.01 0.00 0.00 0.00 0.00 0.00 0.00 0.00 0.00 0.00 0.00 0.00 0.00 0.00 0.00 0.00 0.00 0.00 0.00
0.00 0.01 0.01 0.01 0.01 0.01 0.01 0.00 0.00 0.00 0.01 0.01 0.01 0.03 0.02 0.02 0.02 0.04 0.04 0.04 0.05 0.03 0.02 0.02 0.03 0.00 0.00 0.00 0.01 0.00 0.00 0.00 0.00 0.00 0.00 0.01 0.00 0.00 0.00 0.00 0.00 0.00 0.00 0.00
0.00 0.02 0.01 0.00 0.00 0.00 0.00 0.00 0.00 0.00 0.01 0.01 0.01 0.03 0.02 0.01 0.03 0.03 0.04 0.03 0.01 0.02 0.02 0.04 0.04 0.00 0.00 0.02 0.03 0.03 0.02 0.01 0.01 0.03 0.06 0.08 0.06 0.04 0.02 0.02 0.00 0.00 0.00 0.00
0.00 0.00 0.01 0.00 0.00 0.00 0.00 0.00 0.00 0.00 0.00 0.01 0.02 0.04 0.03 0.03 0.02 0.01 0.01 0.02 0.02 0.01 0.03 0.03 0.01 0.00 0.00 0.01 0.01 0.01 0.01 0.01 0.01 0.04 0.07 0.10 0.11 0.09 0.07 0.02 0.00 0.00 0.00 0.00
0.00 0.00 0.00 0.00 0.00 0.00 0.00 0.00 0.00 0.00 0.00 0.00 0.01 0.02 0.02 0.01 0.01 0.01 0.01 0.01 0.01 0.02 0.01 0.00 0.00 0.00 0.00 0.03 0.07 0.03 0.01 0.00 0.00 0.01 0.01 0.01 0.02 0.02 0.02 0.01 0.00 0.00 0.00 0.00
0.00 0.00 0.00 0.00 0.00 0.00 0.00 0.00 0.00 0.00 0.00 0.00 0.02 0.02 0.01 0.01 0.01 0.01 0.01 0.02 0.03 0.01 0.00 0.00 0.00 0.00 0.00 0.01 0.04 0.05 0.02 0.00 0.00 0.00 0.00 0.00 0.00 0.00 0.00 0.00 0.00 0.00 0.00 0.00

GFSNW_prec_prec_222.txt.gz
QPF
0.00 0.00 0.00 0.00 0.00 0.00 0.00 0.00 0.00 0.01 0.05 0.01 0.00 0.00 0.00 0.00 0.00 0.00 0.00 0.00 0.00 0.00 0.00 0.00 0.00 0.00 0.00 0.00 0.01 0.06 0.08 0.04 0.01 0.00 0.00 0.00 0.00 0.00 0.02 0.17 0.14 0.10 0.08 0.04
0.00 0.00 0.00 0.00 0.00 0.00 0.00 0.00 0.00 0.00 0.02 0.01 0.01 0.00 0.00 0.00 0.00 0.00 0.00 0.00 0.00 0.00 0.00 0.00 0.00 0.00 0.00 0.00 0.00 0.01 0.01 0.02 0.00 0.00 0.00 0.00 0.08 0.07 0.07 0.09 0.15 0.13 0.07 0.03
0.00 0.00 0.00 0.00 0.00 0.01 0.00 0.00 0.00 0.00 0.00 0.01 0.01 0.00 0.00 0.00 0.00 0.00 0.00 0.00 0.00 0.00 0.00 0.00 0.00 0.00 0.00 0.00 0.00 0.01 0.00 0.01 0.00 0.00 0.00 0.00 0.03 0.03 0.04 0.11 0.13 0.09 0.07 0.01
0.00 0.00 0.00 0.01 0.01 0.01 0.00 0.00 0.00 0.00 0.00 0.00 0.00 0.00 0.00 0.00 0.00 0.00 0.00 0.00 0.00 0.00 0.00 0.00 0.00 0.00 0.00 0.00 0.01 0.04 0.02 0.02 0.00 0.00 0.00 0.00 0.00 0.00 0.00 0.02 0.05 0.06 0.01 0.00
0.00 0.00 0.00 0.00 0.01 0.01 0.00 0.00 0.00 0.00 0.00 0.00 0.00 0.01 0.01 0.00 0.00 0.00 0.00 0.02 0.00 0.00 0.00 0.00 0.00 0.00 0.01 0.01 0.01 0.05 0.06 0.04 0.01 0.01 0.00 0.00 0.01 0.00 0.00 0.00 0.00 0.00 0.00 0.00
0.00 0.00 0.00 0.00 0.01 0.00 0.00 0.00 0.00 0.01 0.00 0.00 0.00 0.00 0.00 0.00 0.00 0.00 0.02 0.02 0.05 0.03 0.01 0.03 0.01 0.00 0.00 0.00 0.00 0.01 0.05 0.07 0.06 0.05 0.00 0.01 0.03 0.00 0.00 0.00 0.00 0.00 0.00 0.00
0.00 0.00 0.00 0.00 0.01 0.01 0.00 0.00 0.01 0.03 0.01 0.00 0.00 0.00 0.00 0.00 0.00 0.00 0.00 0.01 0.01 0.01 0.01 0.01 0.00 0.00 0.00 0.00 0.00 0.00 0.00 0.00 0.01 0.02 0.01 0.03 0.01 0.00 0.00 0.00 0.00 0.00 0.00 0.00
0.00 0.00 0.00 0.00 0.01 0.02 0.00 0.00 0.04 0.10 0.06 0.00 0.00 0.00 0.00 0.00 0.00 0.00 0.00 0.00 0.00 0.00 0.00 0.00 0.01 0.00 0.00 0.00 0.00 0.00 0.00 0.00 0.01 0.01 0.00 0.00 0.00 0.00 0.00 0.00 0.00 0.00 0.00 0.00
0.00 0.00 0.00 0.00 0.00 0.01 0.00 0.00 0.02 0.10 0.16 0.04 0.00 0.00 0.00 0.00 0.00 0.00 0.00 0.00 0.00 0.00 0.00 0.02 0.03 0.00 0.00 0.00 0.00 0.00 0.00 0.00 0.02 0.03 0.04 0.01 0.00 0.00 0.00 0.00 0.00 0.00 0.00 0.00
0.00 0.00 0.00 0.00 0.00 0.00 0.00 0.00 0.01 0.03 0.02 0.00 0.00 0.00 0.00 0.00 0.00 0.01 0.00 0.00 0.00 0.00 0.01 0.04 0.03 0.01 0.00 0.00 0.00 0.00 0.00 0.00 0.01 0.01 0.02 0.00 0.00 0.00 0.00 0.00 0.00 0.00 0.00 0.00
0.00 0.00 0.00 0.00 0.00 0.00 0.00 0.00 0.00 0.02 0.01 0.00 0.00 0.00 0.00 0.00 0.00 0.00 0.00 0.01 0.00 0.01 0.03 0.01 0.00 0.00 0.00 0.00 0.00 0.00 0.00 0.00 0.00 0.00 0.01 0.01 0.00 0.00 0.00 0.00 0.00 0.00 0.00 0.00
0.00 0.00 0.00 0.00 0.00 0.00 0.01 0.00 0.00 0.01 0.03 0.00 0.00 0.00 0.00 0.00 0.00 0.00 0.00 0.01 0.01 0.03 0.07 0.04 0.06 0.04 0.03 0.02 0.02 0.00 0.00 0.00 0.00 0.00 0.00 0.00 0.00 0.00 0.00 0.00 0.00 0.00 0.00 0.00
0.00 0.00 0.00 0.00 0.00 0.00 0.00 0.00 0.00 0.02 0.01 0.00 0.00 0.00 0.00 0.00 0.00 0.00 0.02 0.01 0.00 0.01 0.01 0.12 0.09 0.05 0.01 0.01 0.01 0.00 0.00 0.01 0.01 0.02 0.00 0.00 0.00 0.00 0.00 0.00 0.00 0.00 0.01 0.01
0.00 0.00 0.00 0.00 0.00 0.00 0.00 0.00 0.00 0.01 0.02 0.03 0.00 0.00 0.00 0.00 0.00 0.00 0.00 0.00 0.00 0.03 0.14 0.24 0.16 0.07 0.00 0.00 0.00 0.00 0.00 0.01 0.01 0.00 0.00 0.00 0.00 0.00 0.00 0.01 0.00 0.00 0.00 0.00
0.01 0.00 0.00 0.00 0.00 0.00 0.00 0.00 0.00 0.00 0.01 0.01 0.00 0.00 0.00 0.00 0.00 0.00 0.00 0.00 0.00 0.03 0.24 0.19 0.07 0.01 0.03 0.04 0.01 0.00 0.00 0.00 0.00 0.00 0.00 0.00 0.00 0.00 0.01 0.02 0.01 0.06 0.02 0.00
0.00 0.00 0.00 0.01 0.01 0.00 0.00 0.00 0.00 0.00 0.01 0.06 0.08 0.01 0.00 0.00 0.00 0.00 0.00 0.00 0.00 0.08 0.18 0.07 0.03 0.00 0.07 0.12 0.01 0.00 0.00 0.00 0.00 0.00 0.00 0.00 0.00 0.00 0.01 0.02 0.03 0.08 0.17 0.09
0.00 0.00 0.00 0.00 0.01 0.01 0.00 0.00 0.00 0.00 0.04 0.07 0.04 0.00 0.00 0.00 0.00 0.00 0.00 0.01 0.04 0.08 0.14 0.11 0.05 0.01 0.09 0.12 0.01 0.00 0.00 0.00 0.00 0.00 0.00 0.00 0.00 0.00 0.00 0.00 0.06 0.15 0.20 0.30
0.00 0.00 0.00 0.00 0.01 0.01 0.00 0.00 0.00 0.00 0.01 0.03 0.04 0.00 0.00 0.00 0.00 0.00 0.00 0.01 0.01 0.01 0.01 0.01 0.01 0.00 0.03 0.02 0.00 0.00 0.00 0.00 0.00 0.00 0.01 0.01 0.00 0.00 0.00 0.02 0.02 0.02 0.06 0.10
0.00 0.00 0.00 0.00 0.00 0.00 0.00 0.00 0.01 0.01 0.01 0.04 0.02 0.00 0.00 0.00 0.00 0.02 0.04 0.04 0.02 0.01 0.03 0.01 0.01 0.01 0.01 0.00 0.00 0.00 0.00 0.00 0.00 0.00 0.00 0.00 0.00 0.00 0.01 0.10 0.06 0.03 0.11 0.19
0.00 0.00 0.00 0.00 0.00 0.00 0.00 0.01 0.03 0.04 0.06 0.06 0.02 0.00 0.00 0.00 0.00 0.01 0.04 0.06 0.01 0.02 0.00 0.00 0.02 0.00 0.00 0.00 0.00 0.00 0.00 0.00 0.00 0.00 0.00 0.00 0.00 0.00 0.02 0.06 0.01 0.01 0.04 0.04
0.00 0.00 0.01 0.00 0.00 0.00 0.00 0.01 0.01 0.01 0.03 0.02 0.00 0.00 0.00 0.00 0.00 0.05 0.09 0.04 0.02 0.04 0.00 0.02 0.03 0.00 0.00 0.00 0.00 0.00 0.00 0.00 0.00 0.00 0.00 0.00 0.00 0.00 0.03 0.02 0.03 0.02 0.01 0.03
0.00 0.01 0.00 0.00 0.00 0.00 0.00 0.00 0.00 0.00 0.00 0.00 0.00 0.00 0.00 0.01 0.00 0.00 0.00 0.01 0.02 0.02 0.05 0.06 0.01 0.00 0.00 0.00 0.00 0.00 0.00 0.00 0.00 0.00 0.00 0.00 0.00 0.00 0.00 0.00 0.01 0.02 0.02 0.05
0.00 0.00 0.00 0.00 0.00 0.00 0.00 0.00 0.00 0.00 0.00 0.00 0.00 0.02 0.02 0.00 0.00 0.00 0.00 0.02 0.04 0.02 0.04 0.06 0.01 0.00 0.00 0.00 0.00 0.00 0.00 0.00 0.00 0.00 0.00 0.00 0.00 0.00 0.00 0.00 0.00 0.00 0.02 0.04
0.00 0.02 0.01 0.01 0.00 0.00 0.00 0.00 0.00 0.00 0.00 0.00 0.01 0.01 0.00 0.00 0.01 0.00 0.01 0.00 0.00 0.01 0.01 0.02 0.01 0.00 0.00 0.00 0.00 0.00 0.00 0.00 0.00 0.00 0.01 0.01 0.01 0.00 0.00 0.00 0.00 0.00 0.00 0.03
0.01 0.00 0.01 0.00 0.00 0.00 0.00 0.00 0.00 0.00 0.01 0.01 0.00 0.00 0.00 0.01 0.02 0.00 0.00 0.00 0.00 0.01 0.03 0.04 0.01 0.00 0.00 0.00 0.00 0.00 0.00 0.00 0.00 0.01 0.02 0.03 0.04 0.06 0.08 0.05 0.01 0.00 0.01 0.07
0.00 0.00 0.00 0.00 0.00 0.00 0.00 0.00 0.00 0.01 0.02 0.01 0.01 0.01 0.00 0.00 0.01 0.00 0.00 0.00 0.00 0.01 0.01 0.00 0.00 0.00 0.00 0.00 0.01 0.01 0.00 0.00 0.01 0.01 0.02 0.03 0.05 0.06 0.05 0.02 0.01 0.01 0.02 0.01
0.01 0.00 0.00 0.00 0.00 0.00 0.00 0.00 0.00 0.01 0.01 0.00 0.01 0.01 0.00 0.00 0.00 0.00 0.00 0.00 0.00 0.00 0.00 0.00 0.00 0.00 0.00 0.00 0.00 0.01 0.01 0.01 0.00 0.00 0.01 0.01 0.01 0.00 0.00 0.00 0.00 0.00 0.00 0.00

GFSNW_prec_prec_225.txt.gz
QPF
0.00 0.00 0.00 0.00 0.00 0.00 0.00 0.00 0.00 0.00 0.00 0.00 0.00 0.00 0.00 0.00 0.00 0.00 0.00 0.00 0.00 0.00 0.00 0.00 0.00 0.00 0.00 0.00 0.00 0.00 0.00 0.00 0.00 0.00 0.00 0.00 0.02 0.04 0.10 0.19 0.15 0.09 0.06 0.03
0.00 0.00 0.00 0.00 0.00 0.00 0.00 0.00 0.00 0.00 0.00 0.00 0.00 0.00 0.00 0.00 0.00 0.00 0.00 0.00 0.00 0.00 0.00 0.00 0.00 0.00 0.00 0.00 0.01 0.00 0.00 0.00 0.00 0.00 0.00 0.00 0.05 0.15 0.12 0.13 0.14 0.13 0.13 0.05
0.00 0.00 0.00 0.00 0.00 0.00 0.00 0.00 0.00 0.00 0.00 0.00 0.00 0.00 0.00 0.00 0.00 0.00 0.00 0.00 0.00 0.00 0.00 0.00 0.00 0.00 0.00 0.00 0.00 0.01 0.00 0.00 0.00 0.00 0.00 0.00 0.00 0.01 0.08 0.12 0.07 0.08 0.09 0.05
0.00 0.00 0.00 0.00 0.00 0.00 0.00 0.00 0.00 0.00 0.00 0.00 0.00 0.00 0.00 0.00 0.00 0.00 0.00 0.00 0.00 0.01 0.01 0.00 0.00 0.00 0.00 0.00 0.00 0.02 0.01 0.01 0.00 0.00 0.00 0.00 0.00 0.00 0.00 0.04 0.03 0.04 0.00 0.00
0.00 0.00 0.00 0.00 0.00 0.00 0.00 0.00 0.00 0.00 0.00 0.00 0.00 0.00 0.00 0.00 0.00 0.00 0.00 0.00 0.00 0.00 0.01 0.01 0.01 0.01 0.01 0.00 0.00 0.01 0.03 0.06 0.03 0.01 0.00 0.00 0.00 0.00 0.00 0.00 0.00 0.00 0.00 0.00
0.00 0.00 0.00 0.00 0.00 0.00 0.00 0.00 0.00 0.00 0.00 0.00 0.00 0.00 0.00 0.00 0.00 0.00 0.00 0.00 0.00 0.00 0.01 0.00 0.00 0.00 0.00 0.00 0.00 0.00 0.00 0.01 0.01 0.00 0.00 0.01 0.02 0.00 0.00 0.00 0.00 0.01 0.01 0.00
0.00 0.00 0.00 0.00 0.01 0.00 0.00 0.00 0.00 0.01 0.01 0.00 0.00 0.00 0.00 0.00 0.00 0.00 0.00 0.00 0.00 0.00 0.00 0.00 0.00 0.00 0.00 0.00 0.00 0.00 0.00 0.00 0.01 0.00 0.00 0.02 0.00 0.00 0.00 0.00 0.00 0.00 0.00 0.00
0.00 0.00 0.00 0.00 0.00 0.02 0.00 0.00 0.01 0.06 0.06 0.00 0.00 0.00 0.00 0.00 0.00 0.00 0.00 0.00 0.00 0.00 0.00 0.01 0.00 0.00 0.00 0.00 0.00 0.00 0.00 0.00 0.01 0.01 0.00 0.00 0.00 0.00 0.00 0.00 0.00 0.00 0.00 0.00
0.00 0.00 0.00 0.00 0.00 0.02 0.00 0.00 0.01 0.03 0.05 0.01 0.00 0.00 0.00 0.00 0.00 0.00 0.00 0.00 0.00 0.00 0.01 0.03 0.03 0.00 0.00 0.00 0.00 0.00 0.00 0.00 0.02 0.02 0.02 0.00 0.00 0.00 0.00 0.00 0.00 0.00 0.00 0.00
0.00 0.00 0.00 0.00 0.00 0.01 0.01 0.00 0.00 0.00 0.01 0.00 0.00 0.00 0.00 0.00 0.00 0.00 0.00 0.00 0.00 0.00 0.01 0.04 0.02 0.00 0.00 0.00 0.00 0.00 0.00 0.00 0.02 0.01 0.02 0.00 0.00 0.00 0.00 0.00 0.00 0.00 0.00 0.00
0.00 0.00 0.00 0.00 0.00 0.00 0.01 0.00 0.00 0.00 0.00 0.00 0.00 0.00 0.00 0.00 0.00 0.00 0.00 0.00 0.00 0.00 0.02 0.01 0.00 0.00 0.00 0.00 0.00 0.00 0.00 0.01 0.01 0.02 0.03 0.01 0.00 0.00 0.00 0.00 0.00 0.00 0.00 0.00
0.00 0.00 0.00 0.00 0.00 0.00 0.01 0.01 0.00 0.01 0.04 0.01 0.00 0.00 0.00 0.00 0.00 0.00 0.00 0.01 0.00 0.01 0.04 0.04 0.05 0.05 0.04 0.03 0.03 0.00 0.00 0.00 0.00 0.00 0.00 0.00 0.00 0.00 0.00 0.00 0.00 0.00 0.00 0.00
0.00 0.00 0.00 0.00 0.00 0.00 0.00 0.00 0.00 0.02 0.05 0.01 0.00 0.00 0.00 0.00 0.00 0.00 0.00 0.00 0.00 0.00 0.00 0.05 0.05 0.03 0.00 0.00 0.00 0.00 0.00 0.00 0.00 0.01 0.00 0.00 0.00 0.00 0.00 0.00 0.00 0.00 0.00 0.00
0.01 0.01 0.00 0.00 0.00 0.00 0.00 0.00 0.00 0.02 0.03 0.04 0.00 0.00 0.00 0.00 0.00 0.00 0.00 0.00 0.00 0.00 0.01 0.09 0.11 0.07 0.02 0.01 0.00 0.00 0.00 0.00 0.00 0.01 0.00 0.00 0.00 0.00 0.00 0.00 0.00 0.00 0.00 0.00
0.01 0.01 0.01 0.01 0.01 0.01 0.01 0.00 0.00 0.00 0.01 0.01 0.00 0.00 0.00 0.00 0.00 0.00 0.00 0.00 0.00 0.00 0.08 0.13 0.05 0.01 0.03 0.03 0.02 0.00 0.00 0.00 0.01 0.02 0.00 0.00 0.00 0.00 0.00 0.00 0.00 0.00 0.00 0.01
0.00 0.01 0.01 0.01 0.01 0.02 0.01 0.00 0.00 0.00 0.00 0.05 0.03 0.00 0.00 0.00 0.00 0.00 0.00 0.00 0.00 0.03 0.13 0.10 0.05 0.00 0.07 0.12 0.01 0.00 0.00 0.00 0.00 0.00 0.00 0.00 0.00 0.00 0.00 0.00 0.00 0.00 0.00 0.01
0.00 0.00 0.00 0.01 0.01 0.02 0.01 0.00 0.00 0.01 0.08 0.15 0.04 0.00 0.00 0.00 0.00 0.00 0.00 0.00 0.01 0.08 0.17 0.14 0.04 0.01 0.06 0.09 0.01 0.00 0.00 0.00 0.00 0.00 0.00 0.00 0.00 0.00 0.00 0.00 0.00 0.00 0.00 0.01
0.00 0.00 0.00 0.00 0.01 0.02 0.01 0.00 0.00 0.00 0.05 0.06 0.01 0.00 0.00 0.00 0.00 0.00 0.00 0.00 0.02 0.05 0.06 0.03 0.02 0.02 0.05 0.05 0.00 0.00 0.00 0.00 0.00 0.00 0.00 0.00 0.00 0.00 0.00 0.00 0.00 0.00 0.01 0.07
0.00 0.00 0.00 0.00 0.00 0.00 0.00 0.00 0.00 0.00 0.00 0.00 0.00 0.00 0.00 0.00 0.00 0.00 0.00 0.01 0.01 0.00 0.01 0.01 0.01 0.01 0.01 0.00 0.00 0.00 0.00 0.00 0.00 0.00 0.00 0.00 0.00 0.00 0.00 0.00 0.00 0.00 0.02 0.07
0.00 0.00 0.00 0.00 0.00 0.00 0.00 0.02 0.09 0.13 0.11 0.05 0.03 0.00 0.00 0.00 0.00 0.00 0.00 0.03 0.03 0.01 0.00 0.01 0.02 0.00 0.00 0.00 0.00 0.00 0.00 0.00 0.00 0.00 0.00 0.00 0.00 0.00 0.00 0.00 0.00 0.00 0.00 0.03
0.00 0.01 0.02 0.00 0.01 0.04 0.03 0.02 0.04 0.04 0.06 0.04 0.01 0.00 0.00 0.00 0.00 0.00 0.01 0.05 0.02 0.02 0.00 0.02 0.02 0.00 0.00 0.00 0.00 0.00 0.00 0.00 0.00 0.00 0.00 0.00 0.00 0.00 0.00 0.00 0.00 0.00 0.01 0.04
0.00 0.01 0.00 0.00 0.00 0.04 0.03 0.02 0.01 0.00 0.00 0.00 0.00 0.00 0.00 0.00 0.00 0.01 0.01 0.01 0.01 0.01 0.04 0.09 0.02 0.01 0.00 0.00 0.00 0.00 0.00 0.00 0.00 0.00 0.00 0.00 0.00 0.00 0.00 0.00 0.00 0.00 0.04 0.11
0.00 0.00 0.00 0.00 0.00 0.00 0.00 0.00 0.00 0.00 0.00 0.00 0.00 0.00 0.00 0.00 0.01 0.00 0.00 0.01 0.00 0.00 0.02 0.03 0.02 0.00 0.00 0.00 0.00 0.00 0.00 0.00 0.00 0.00 0.00 0.00 0.00 0.00 0.00 0.00 0.00 0.00 0.03 0.04
0.00 0.01 0.01 0.00 0.00 0.00 0.00 0.00 0.00 0.00 0.00 0.00 0.01 0.03 0.02 0.01 0.01 0.00 0.00 0.00 0.00 0.00 0.00 0.00 0.00 0.00 0.00 0.00 0.00 0.00 0.00 0.00 0.00 0.00 0.00 0.01 0.01 0.02 0.03 0.00 0.01 0.01 0.00 0.03
0.01 0.01 0.01 0.00 0.00 0.00 0.00 0.00 0.00 0.00 0.00 0.01 0.02 0.02 0.01 0.03 0.01 0.00 0.00 0.00 0.00 0.00 0.00 0.00 0.00 0.00 0.00 0.00 0.00 0.00 0.00 0.00 0.00 0.00 0.00 0.01 0.02 0.02 0.03 0.03 0.01 0.01 0.01 0.13
0.00 0.00 0.00 0.00 0.00 0.00 0.00 0.00 0.00 0.00 0.01 0.01 0.01 0.02 0.02 0.01 0.00 0.00 0.00 0.00 0.00 0.00 0.00 0.00 0.00 0.00 0.00 0.00 0.00 0.00 0.00 0.00 0.00 0.00 0.01 0.02 0.04 0.07 0.10 0.06 0.06 0.08 0.13 0.18
0.00 0.00 0.00 0.00 0.00 0.00 0.00 0.00 0.00 0.00 0.00 0.00 0.01 0.02 0.00 0.00 0.00 0.00 0.00 0.00 0.00 0.00 0.00 0.00 0.00 0.00 0.00 0.00 0.00 0.00 0.01 0.01 0.00 0.00 0.01 0.01 0.01 0.02 0.03 0.03 0.05 0.01 0.01 0.01